TimeHST,TemperatureF,Dew PointF,Humidity,Sea Level PressureIn,VisibilityMPH,Wind Direction,Wind SpeedMPH,Gust SpeedMPH,PrecipitationIn,Events,Conditions,WindDirDegrees,DateUTC
12:53 AM,66.0,62.1,87,30.21,10.0,SW,5.8,-,0.03,,Mostly Cloudy,230,2013-02-11 10:53:00
1:53 AM,64.0,60.1,87,30.19,10.0,SW,5.8,-,N/A,,Partly Cloudy,220,2013-02-11 11:53:00
2:53 AM,64.0,61.0,90,30.17,10.0,WSW,3.5,-,N/A,,Partly Cloudy,240,2013-02-11 12:53:00
3:53 AM,66.9,62.1,84,30.18,10.0,West,5.8,-,N/A,,Mostly Cloudy,260,2013-02-11 13:53:00
4:05 AM,66.0,62.1,87,30.18,10.0,WSW,3.5,-,N/A,,Mostly Cloudy,240,2013-02-11 14:05:00
4:12 AM,66.0,61.0,84,30.18,10.0,WSW,5.8,-,N/A,,Mostly Cloudy,240,2013-02-11 14:12:00
4:53 AM,64.9,60.1,84,30.18,10.0,WSW,6.9,-,N/A,,Overcast,240,2013-02-11 14:53:00
5:53 AM,64.9,60.1,84,30.19,10.0,West,9.2,-,0.00,Rain,Light Rain,260,2013-02-11 15:53:00
6:53 AM,64.9,59.0,81,30.21,10.0,SW,5.8,-,0.00,,Mostly Cloudy,230,2013-02-11 16:53:00
7:53 AM,64.0,59.0,84,30.21,10.0,West,3.5,-,N/A,,Scattered Clouds,280,2013-02-11 17:53:00
8:53 AM,72.0,64.0,76,30.22,10.0,WNW,3.5,-,N/A,,Partly Cloudy,290,2013-02-11 18:53:00
9:53 AM,75.9,61.0,60,30.22,10.0,North,8.1,-,N/A,,Partly Cloudy,360,2013-02-11 19:53:00
10:53 AM,77.0,61.0,58,30.20,10.0,NE,9.2,-,N/A,,Partly Cloudy,50,2013-02-11 20:53:00
11:53 AM,77.0,62.1,60,30.18,10.0,NE,8.1,-,N/A,,Partly Cloudy,40,2013-02-11 21:53:00
12:53 PM,78.1,62.1,58,30.17,10.0,NE,11.5,-,N/A,,Partly Cloudy,50,2013-02-11 22:53:00
1:53 PM,78.1,62.1,58,30.15,10.0,NNE,10.4,-,N/A,,Scattered Clouds,30,2013-02-11 23:53:00
2:53 PM,78.1,61.0,56,30.13,10.0,NNE,12.7,-,N/A,,Mostly Cloudy,20,2013-02-12 00:53:00
3:53 PM,77.0,63.0,62,30.13,10.0,North,12.7,-,N/A,,Mostly Cloudy,10,2013-02-12 01:53:00
4:53 PM,75.9,63.0,64,30.13,10.0,North,10.4,-,N/A,,Mostly Cloudy,10,2013-02-12 02:53:00
5:53 PM,72.0,62.1,71,30.14,10.0,NE,5.8,-,N/A,,Mostly Cloudy,40,2013-02-12 03:53:00
6:53 PM,71.1,64.0,78,30.15,9.0,North,6.9,-,0.02,Rain,Light Rain,360,2013-02-12 04:53:00
7:08 PM,70.0,64.0,81,30.16,10.0,ENE,10.4,-,0.01,Rain,Light Rain,60,2013-02-12 05:08:00
7:15 PM,70.0,64.0,81,30.16,10.0,NE,9.2,-,0.01,Rain,Light Rain,50,2013-02-12 05:15:00
7:53 PM,71.1,64.0,78,30.17,10.0,NE,8.1,-,0.01,,Overcast,50,2013-02-12 05:53:00
8:53 PM,71.1,62.1,73,30.19,10.0,NE,11.5,-,N/A,,Mostly Cloudy,40,2013-02-12 06:53:00
9:25 PM,71.1,61.0,70,30.20,10.0,NNE,13.8,-,N/A,,Overcast,30,2013-02-12 07:25:00
9:34 PM,71.1,61.0,70,30.21,10.0,NNE,10.4,-,N/A,,Mostly Cloudy,30,2013-02-12 07:34:00
9:53 PM,72.0,61.0,68,30.20,10.0,NNE,13.8,-,N/A,,Overcast,30,2013-02-12 07:53:00
10:53 PM,71.1,60.1,68,30.20,10.0,NE,9.2,-,N/A,,Mostly Cloudy,40,2013-02-12 08:53:00
11:53 PM,71.1,59.0,66,30.19,10.0,North,11.5,-,N/A,,Overcast,10,2013-02-12 09:53:00